Theta_e
330 333 343 346 345 350 351 348 352 356 356 356 356 359 360 357 357 359 358 357 356 355 352 352 350 349 349 349 349 352 352 353 353 349 349 351 350 350 351 347 344 347 346 343 342 341 340 341 340 341 342 343 342 341 341 341 341 340 339 334 328 325 329 333 337 339 339 340 340 340 340 342 344 344 345 345 345 345 345 345 345 345 345 345 345 344 343 343 343 343 343 343 342 341 341 342 342
332 337 345 347 348 350 351 351 354 357 356 356 359 360 358 357 358 358 357 357 354 351 351 350 348 348 347 349 350 353 354 354 355 353 352 352 351 351 350 347 346 346 345 342 342 341 342 342 341 342 343 343 342 342 341 341 339 337 334 329 326 330 336 339 341 341 341 341 340 341 341 342 343 343 344 344 344 344 344 344 344 344 345 344 344 343 342 343 343 343 343 343 343 341 341 343 343
343 346 348 348 348 350 353 353 354 356 356 355 357 361 359 357 358 358 358 356 350 349 350 349 348 347 347 349 350 353 353 353 353 352 352 351 351 351 349 349 348 344 343 342 341 342 342 342 341 343 343 343 341 341 340 337 334 331 328 328 333 338 341 342 342 342 342 342 341 341 341 342 342 343 344 344 344 343 342 342 342 344 345 344 344 343 343 344 344 344 344 342 343 341 341 343 343
349 349 349 347 349 352 355 356 357 357 355 354 355 360 360 357 356 358 358 352 350 349 350 351 348 347 347 350 351 351 352 353 353 352 352 351 350 351 351 350 349 344 342 342 341 341 341 340 341 343 343 342 341 339 336 332 329 329 331 335 340 342 343 343 343 342 342 343 342 340 341 343 343 344 344 343 343 342 342 342 343 344 344 345 345 344 344 343 344 344 343 342 342 343 343 343 343
348 349 349 348 352 355 356 357 359 357 355 356 357 362 360 358 357 358 354 350 350 350 352 350 347 347 348 349 350 351 352 352 353 352 352 352 351 350 350 349 349 346 346 344 341 340 340 341 341 342 342 341 340 337 334 332 331 334 339 342 343 343 344 343 342 342 342 343 342 340 341 342 343 344 343 342 342 342 342 343 344 344 345 345 344 344 343 342 343 343 342 341 341 342 343 343 342
348 350 349 348 353 355 355 356 357 357 358 358 361 362 360 358 358 356 351 350 351 351 351 350 348 347 347 347 350 350 350 351 352 352 352 352 351 349 349 350 350 349 349 345 340 340 340 340 340 340 341 340 339 337 336 336 338 340 341 343 343 344 343 342 341 342 343 343 342 341 341 342 342 342 342 342 342 342 344 345 344 345 345 344 343 343 343 342 342 342 342 341 341 342 342 341 341
351 351 351 350 352 355 356 357 356 359 360 358 361 359 358 359 358 354 351 351 351 351 350 349 347 347 348 347 348 349 350 351 352 352 351 351 352 351 352 352 351 351 349 343 339 341 340 340 339 339 339 339 337 337 338 339 341 340 339 342 343 343 341 341 341 342 343 344 343 342 342 342 343 342 342 342 343 344 345 345 345 345 344 343 342 343 343 342 342 342 341 340 341 343 341 340 340
352 351 352 353 356 357 357 357 357 360 360 357 359 358 358 360 358 352 350 351 350 350 350 348 347 347 348 348 348 349 351 351 352 352 350 351 353 352 352 352 352 351 347 340 340 341 340 340 339 338 339 338 338 339 339 340 341 338 339 341 342 342 341 342 342 342 343 344 344 342 342 342 343 344 343 343 343 344 344 344 344 344 344 344 343 342 342 341 341 341 341 340 341 342 341 339 340
351 351 354 356 357 358 356 357 358 360 360 358 358 360 361 360 357 353 352 352 350 350 350 348 347 347 347 348 348 349 351 351 352 352 351 351 352 352 352 352 351 348 342 339 340 340 340 340 339 339 339 340 341 340 340 341 341 338 340 341 341 341 342 342 342 342 342 342 343 343 342 343 344 344 344 344 344 344 344 344 344 343 344 344 344 342 341 340 341 341 340 339 340 341 340 339 339
351 353 355 357 357 355 354 357 361 360 359 358 358 361 363 360 356 354 355 352 351 350 351 349 347 349 349 350 349 350 351 352 352 352 352 353 352 352 352 352 351 345 340 340 340 340 339 339 340 340 340 341 341 339 340 342 341 339 341 341 342 342 342 341 341 341 341 341 343 343 343 344 344 343 344 344 344 344 344 344 343 343 343 343 344 343 340 339 340 340 340 340 340 339 339 339 339
353 355 355 355 354 352 352 356 361 361 358 358 359 362 361 360 357 355 355 352 352 352 350 347 347 349 350 350 349 349 350 350 351 351 353 353 352 352 352 352 350 344 341 341 340 339 339 339 340 341 341 340 338 338 340 341 340 341 342 342 341 341 341 341 340 339 340 341 342 343 343 344 344 343 343 343 343 344 345 344 343 343 343 343 344 344 342 339 337 339 341 341 340 339 338 338 338
353 357 356 355 355 355 355 356 360 360 359 359 360 361 360 359 358 357 354 352 353 351 349 347 348 348 349 350 349 347 348 349 349 350 351 353 352 351 352 352 351 346 342 340 339 339 339 340 342 342 340 338 338 339 340 340 342 343 342 341 341 341 341 340 340 340 340 341 341 342 343 344 343 342 341 342 343 345 344 343 342 342 342 343 345 345 345 342 337 338 341 341 341 339 338 338 339
354 357 357 356 358 359 357 357 360 360 362 363 360 361 360 359 356 357 355 353 353 352 351 348 347 349 349 349 348 347 347 347 348 349 350 352 352 352 352 351 351 349 344 339 338 338 339 341 342 340 340 341 342 341 340 341 343 342 341 342 341 341 341 341 340 340 341 341 341 341 343 342 340 339 338 340 343 344 343 342 342 342 342 343 345 345 345 344 340 339 339 340 341 340 340 340 340
355 356 357 357 360 360 357 359 360 360 362 362 359 360 359 358 356 357 356 353 355 354 350 348 347 349 350 349 348 347 346 347 347 348 349 350 351 351 352 351 351 350 347 341 337 338 339 341 340 339 342 344 344 343 342 341 342 341 341 341 340 340 342 342 342 341 341 340 341 341 342 341 339 340 339 340 342 342 342 341 341 342 343 343 344 345 345 346 344 340 338 338 340 340 340 340 339
355 355 357 359 359 357 357 359 359 359 361 360 359 360 358 359 358 357 356 354 354 352 350 347 347 348 348 348 348 347 347 347 347 348 349 349 350 350 350 351 350 349 349 346 343 343 344 344 342 341 344 346 345 344 344 342 342 342 342 341 340 340 342 342 342 341 341 340 341 343 342 341 341 342 341 341 341 341 340 340 341 342 342 342 343 343 344 345 345 343 340 339 339 339 339 338 335
355 355 358 359 356 355 358 359 359 358 359 359 359 359 358 359 359 357 355 354 353 352 351 348 346 347 347 348 348 347 347 347 348 348 349 349 349 349 349 349 348 349 350 349 349 349 347 346 343 344 346 345 346 345 344 344 343 342 342 341 340 340 341 341 341 341 341 340 341 342 342 342 343 342 342 343 342 339 339 340 341 342 340 339 340 340 341 342 343 344 343 341 341 341 340 336 334
354 355 358 357 355 356 359 360 360 358 357 358 359 359 359 359 358 358 356 354 353 352 352 349 346 346 347 348 348 347 347 347 347 348 348 349 349 348 348 349 350 351 350 349 349 348 347 346 346 345 345 346 347 346 345 345 345 342 341 341 341 340 340 340 341 341 341 340 340 341 343 343 342 342 342 343 343 340 340 341 342 341 339 338 338 338 338 339 340 341 341 342 341 341 339 338 339
354 357 357 355 356 358 358 358 358 357 357 357 358 359 359 358 358 359 358 356 353 352 352 348 345 346 347 349 348 347 347 348 348 349 349 349 349 349 349 350 351 351 349 348 346 345 345 346 347 345 344 345 347 346 346 346 347 344 340 340 341 341 341 340 340 341 341 340 340 342 344 344 343 341 342 343 343 341 340 341 342 340 339 338 338 338 337 337 338 338 338 339 340 339 339 341 342
354 357 356 356 358 358 357 357 356 356 357 358 359 359 359 358 358 359 357 356 352 352 351 347 346 347 348 348 348 348 348 348 349 349 349 348 348 348 349 350 352 351 350 349 347 346 345 345 345 345 344 345 346 345 344 345 347 346 342 340 340 341 342 341 341 340 341 340 341 343 343 342 342 342 343 343 343 341 340 341 342 340 338 337 336 336 336 337 338 338 338 339 338 339 341 343 343
354 356 357 357 356 356 358 359 357 358 359 359 358 359 359 358 358 358 356 353 352 352 351 348 348 348 348 348 348 348 348 348 349 349 349 348 348 349 349 351 352 352 351 349 348 347 346 344 344 345 345 345 345 344 343 344 347 348 345 342 339 341 343 342 341 341 341 340 340 341 341 341 341 342 343 343 342 341 340 340 341 340 338 336 334 334 336 337 339 340 342 342 342 343 344 344 344
354 355 357 356 355 356 360 359 358 359 358 360 359 357 358 358 359 358 356 356 352 351 351 349 348 349 348 348 348 348 348 348 348 348 348 348 348 348 349 351 351 352 352 350 349 349 347 346 345 344 345 345 344 343 342 343 347 348 347 345 342 341 342 341 342 343 342 340 339 340 342 342 341 342 342 342 342 340 339 339 340 340 338 336 334 335 338 340 342 344 345 346 346 346 346 344 344
354 354 353 354 355 357 360 359 359 359 359 359 358 357 356 357 359 357 357 358 354 351 351 349 348 348 348 348 348 348 348 348 348 347 348 348 347 347 349 350 351 351 352 352 351 349 348 347 344 343 345 346 345 344 343 345 347 347 347 346 344 342 340 339 341 343 343 340 339 340 341 341 341 341 341 341 342 340 338 339 340 341 340 338 338 341 343 344 345 347 346 348 347 346 346 344 344
353 354 351 351 354 358 359 359 359 359 360 359 357 357 357 357 358 357 357 356 354 350 350 349 349 348 347 348 347 347 347 347 346 347 346 347 347 347 348 349 350 350 352 353 352 350 348 347 346 344 345 345 346 345 345 347 347 346 347 348 347 345 341 339 342 342 341 341 340 340 341 341 341 341 340 340 341 340 339 338 339 341 342 342 342 344 345 345 347 347 347 348 347 346 345 345 344
352 353 351 349 353 357 359 358 360 359 359 359 358 358 358 358 357 356 358 357 353 349 350 348 347 348 346 346 346 347 347 346 346 346 346 346 347 347 348 348 348 350 352 352 353 352 349 347 347 347 347 346 347 345 345 346 346 347 348 350 350 349 346 344 344 343 342 343 342 341 341 341 343 343 342 341 341 341 340 339 339 341 342 342 343 344 344 345 347 347 348 349 348 346 346 346 345
352 351 351 348 350 356 358 358 359 359 359 359 359 359 357 357 357 357 360 358 350 347 348 348 347 347 345 345 345 345 345 345 345 346 346 345 346 346 346 347 348 350 352 352 352 353 352 350 348 347 347 348 348 347 347 346 346 348 349 350 351 350 349 346 346 345 344 344 343 342 339 339 343 344 343 342 342 341 341 340 342 344 343 342 343 343 343 344 345 346 348 349 348 349 349 348 346
352 351 351 348 352 356 359 360 359 359 360 359 358 358 357 356 356 358 357 355 349 347 348 347 346 345 345 344 344 344 344 343 344 344 344 344 345 346 346 346 348 350 352 352 352 352 353 353 350 348 347 347 349 350 349 348 348 350 349 349 349 350 348 346 346 345 343 343 344 343 340 340 343 343 342 344 344 343 341 342 345 346 344 343 343 343 343 343 344 346 348 349 349 349 349 348 347
351 351 351 346 352 356 357 360 359 360 360 360 358 358 359 358 358 358 356 355 351 346 347 347 346 345 344 344 342 343 343 342 342 343 343 343 344 344 345 346 347 350 351 351 352 352 353 354 353 352 351 349 349 348 349 348 348 350 350 349 350 350 348 347 346 343 340 340 341 343 342 343 344 342 342 346 347 346 344 345 347 346 346 345 343 342 342 342 344 346 348 349 349 348 349 348 347
349 349 349 344 347 354 356 358 359 359 360 358 358 358 360 358 357 358 357 357 352 346 347 347 345 344 343 343 342 342 342 342 342 341 341 342 343 343 344 344 346 349 350 351 352 353 352 353 353 353 353 353 352 349 350 351 350 351 351 351 351 350 350 349 348 344 338 337 340 343 344 345 345 343 344 346 348 348 348 348 348 347 347 347 345 343 342 342 345 346 347 349 349 349 349 347 346
348 345 347 342 344 354 357 359 359 360 359 358 359 358 359 359 358 356 356 356 351 347 347 346 345 344 343 342 341 341 342 341 342 340 341 342 342 344 343 343 345 347 348 350 352 353 351 352 353 352 352 353 354 352 352 353 352 353 353 351 351 351 350 349 350 348 342 340 341 342 342 344 345 344 345 347 348 348 350 350 348 347 348 348 346 345 343 343 344 345 347 349 350 350 348 346 345
347 343 345 341 341 355 358 357 357 359 359 360 357 356 358 359 358 357 358 356 351 347 347 346 346 344 343 343 342 343 342 342 341 341 341 343 342 344 342 342 344 346 348 350 352 352 352 352 352 352 351 353 355 352 352 352 351 354 352 350 352 352 350 349 350 350 346 344 343 342 341 343 345 345 345 348 348 348 349 349 349 346 345 344 344 344 344 343 343 344 348 350 350 350 349 347 346
347 342 343 340 339 351 358 354 357 358 358 359 354 355 358 359 358 358 359 358 352 348 346 347 345 344 345 342 342 343 342 341 341 342 342 342 342 343 342 342 344 345 348 349 351 352 352 352 351 351 352 353 353 350 351 351 351 353 351 350 352 352 351 349 350 350 348 345 344 343 342 342 344 345 346 346 347 347 347 348 348 345 343 343 344 346 346 346 345 344 347 350 351 350 349 349 348
345 341 338 339 338 348 358 355 356 358 356 357 354 354 359 359 358 358 360 359 356 351 345 346 345 345 345 343 343 343 342 342 341 342 342 341 341 341 342 343 343 344 347 348 350 351 352 351 351 350 350 353 352 349 349 351 351 352 351 351 351 351 351 349 349 350 349 347 345 344 343 341 343 345 346 347 347 346 345 345 344 342 343 345 345 347 347 348 349 346 345 348 349 350 350 350 350
342 340 334 335 337 347 356 354 355 357 356 356 353 354 359 359 357 358 361 359 358 355 347 346 345 345 346 344 344 343 343 343 342 342 341 341 341 340 342 343 343 345 345 347 348 350 351 350 350 350 350 352 350 346 345 349 351 351 351 351 349 349 350 348 348 348 349 350 347 344 343 342 341 343 346 348 349 347 344 343 341 341 343 342 344 345 346 347 349 347 345 346 349 350 350 351 351
335 338 335 335 336 343 351 353 355 355 356 357 354 354 357 357 356 357 360 359 357 356 350 346 345 346 346 343 345 343 342 343 342 342 340 340 341 341 342 342 344 345 344 346 348 349 350 350 349 350 351 349 345 342 341 345 348 350 351 351 350 349 349 349 348 347 349 350 348 345 343 342 341 342 344 347 349 348 346 343 341 341 341 340 343 345 345 345 347 348 346 346 349 350 350 351 351
330 333 334 334 336 342 349 353 355 353 354 356 353 355 357 355 355 358 360 359 356 355 352 349 345 346 345 343 344 344 343 343 342 342 341 341 341 341 342 342 345 345 345 346 347 349 348 348 349 348 350 348 342 339 340 341 343 349 353 350 350 351 349 349 348 347 348 349 348 345 344 344 342 342 344 346 347 348 346 343 341 340 340 341 343 345 346 345 346 348 347 348 350 350 350 350 351
333 335 335 333 336 344 351 352 354 354 355 356 353 355 357 355 356 357 358 357 354 353 353 353 349 344 346 344 344 345 344 343 343 342 341 341 341 341 341 343 345 344 346 346 347 348 346 347 348 347 349 346 340 339 340 340 342 350 353 351 350 350 349 349 348 348 348 347 347 347 346 345 344 343 344 345 346 346 345 342 340 341 341 342 344 346 347 346 346 347 349 349 350 351 351 350 351
336 336 335 335 335 342 351 353 352 353 353 353 353 354 356 357 357 357 356 354 354 353 352 353 354 348 345 345 343 345 345 342 343 342 341 341 341 342 341 344 345 344 346 346 347 348 346 347 349 348 349 345 338 338 340 341 344 351 354 351 351 349 349 349 349 349 347 346 346 346 346 346 346 345 344 345 346 346 345 343 341 342 343 343 346 348 348 348 348 346 347 348 350 352 352 351 352
337 335 334 334 333 337 347 353 351 350 350 350 352 354 354 358 358 357 356 355 355 353 353 353 354 351 347 345 345 345 344 343 344 342 342 342 341 342 342 344 345 344 347 347 347 348 347 349 349 349 349 342 336 337 342 345 346 351 353 351 351 349 349 349 350 350 346 345 346 345 345 345 346 346 345 346 346 345 345 344 344 343 343 344 346 348 347 347 347 346 346 349 351 352 351 351 350
336 335 333 331 334 337 341 348 349 346 348 349 352 354 355 358 358 357 356 357 356 353 353 355 354 353 349 346 345 345 344 343 344 343 343 343 342 343 343 344 345 345 348 348 348 349 348 350 350 350 349 342 339 338 342 347 348 351 352 351 351 350 351 350 349 351 348 346 346 345 345 345 346 347 346 347 346 346 346 345 344 344 344 345 345 346 345 345 346 346 347 351 352 351 351 351 350
335 335 331 330 335 335 334 343 348 346 345 346 350 351 354 357 353 351 349 352 355 353 353 354 354 355 353 350 344 344 344 343 345 344 344 343 342 344 344 344 345 346 349 348 349 350 350 350 348 349 349 344 341 339 341 346 347 350 352 350 351 350 351 351 350 350 349 349 347 345 346 345 346 347 348 349 347 347 347 346 346 345 344 344 344 344 344 345 347 347 349 351 351 350 351 351 351
334 336 333 332 336 335 338 345 347 346 345 347 348 344 346 349 345 345 343 346 353 353 354 353 352 352 353 353 347 345 344 344 344 343 344 343 343 345 344 345 345 347 349 350 350 350 350 350 344 345 349 346 341 339 341 343 344 349 351 350 351 351 351 352 352 351 350 351 349 347 347 347 347 348 348 349 348 347 347 347 346 345 345 344 344 344 344 346 348 350 351 351 350 349 350 350 351
331 335 336 335 337 335 339 346 343 337 339 346 344 340 342 343 340 343 343 347 355 355 354 354 352 351 353 353 349 347 345 343 344 344 344 344 344 345 345 345 346 347 348 349 350 349 350 350 342 344 348 346 344 338 338 341 339 345 349 351 352 352 352 354 354 353 351 352 350 349 349 349 349 348 348 349 348 347 345 347 347 345 345 344 345 346 345 347 351 352 353 353 351 349 349 350 351
327 332 337 337 338 336 336 339 335 329 334 346 343 339 342 347 345 347 347 352 357 356 355 356 353 350 352 354 351 349 345 345 346 344 344 344 346 346 346 346 346 347 348 349 350 349 351 349 341 341 342 343 346 339 334 337 337 340 344 349 352 352 353 354 354 353 352 351 351 351 351 352 351 349 348 348 348 348 345 346 347 346 346 345 346 346 347 351 353 353 352 352 352 350 348 349 349
328 333 336 336 337 337 337 334 332 331 334 341 341 338 342 345 349 353 353 353 354 354 355 357 354 350 352 355 354 351 346 346 346 344 345 344 346 346 347 346 346 348 347 348 349 348 352 347 338 339 338 339 344 339 335 336 335 338 340 345 348 350 353 353 353 354 352 351 351 353 353 351 351 350 349 348 347 347 346 346 347 347 347 347 347 348 349 353 354 353 351 350 350 349 349 350 350
331 333 335 336 336 337 338 333 331 332 331 330 335 335 339 342 349 353 354 352 353 354 354 355 355 352 352 354 354 354 350 350 347 345 345 344 347 347 347 347 345 347 346 347 348 349 352 347 338 338 336 337 340 337 337 335 334 338 338 343 347 350 351 351 353 354 353 353 353 355 354 349 348 350 347 345 345 346 346 346 347 347 348 347 348 350 351 354 353 351 348 346 346 347 347 348 349
332 333 333 333 336 336 337 336 330 330 330 326 328 333 337 341 346 348 352 352 351 355 353 354 357 355 354 353 354 355 354 354 351 347 346 345 347 348 348 347 345 347 347 346 347 349 353 349 338 336 335 336 338 336 336 333 334 336 335 343 348 348 351 351 353 355 355 356 355 353 351 347 347 349 345 344 344 344 344 346 347 348 348 347 349 351 352 353 350 346 345 343 344 346 346 348 350
331 332 334 332 335 336 335 335 331 328 326 326 329 333 336 340 344 346 349 350 349 352 353 354 356 356 355 352 353 356 356 355 352 349 347 346 347 348 348 348 346 347 347 347 347 349 355 351 341 337 336 336 335 335 336 333 335 334 333 343 346 346 351 350 351 354 352 353 353 350 348 347 349 349 346 343 343 344 343 345 348 349 350 350 350 352 352 351 347 343 344 342 342 344 344 347 350
332 332 332 328 328 330 329 329 329 326 324 326 330 333 333 337 344 347 347 349 349 350 351 353 354 356 358 355 355 358 357 356 353 352 350 347 346 347 348 348 345 346 347 347 348 350 354 353 344 339 339 336 333 333 337 335 335 333 333 343 346 345 348 349 351 351 347 347 350 349 348 351 353 352 349 344 345 346 343 347 353 351 350 351 351 352 352 352 350 347 344 342 342 343 343 344 347
332 331 328 324 323 324 324 323 325 324 324 327 330 334 336 339 344 346 347 348 348 349 350 352 354 356 358 358 357 356 354 353 352 353 351 349 348 347 348 348 346 346 347 347 348 349 354 355 348 341 340 338 333 332 335 334 334 334 334 339 344 346 347 347 348 349 346 344 349 351 349 350 354 353 351 349 351 349 343 349 355 351 347 348 349 350 350 352 353 352 347 342 343 343 343 342 344
330 328 324 322 321 322 322 322 323 323 324 326 331 337 339 341 344 346 346 345 347 348 350 352 354 355 357 356 356 355 354 353 352 351 350 350 350 347 347 348 346 346 347 348 348 349 353 356 351 342 339 340 337 333 333 333 332 334 334 335 339 345 346 345 343 345 344 342 348 353 349 348 350 350 351 354 355 351 343 346 351 349 346 345 346 348 349 351 352 352 348 343 343 343 343 343 343
329 329 327 323 322 322 321 321 321 322 323 324 330 338 338 341 344 345 345 345 346 347 349 351 351 354 355 353 356 357 354 354 352 351 351 351 352 350 348 349 347 346 348 348 349 349 350 355 353 346 341 340 339 337 334 333 332 332 333 334 335 338 341 341 341 342 344 342 346 353 353 351 349 349 353 354 354 352 346 344 346 347 346 345 345 346 346 347 347 348 347 345 347 345 344 343 341
328 330 328 323 323 324 320 319 321 320 321 323 329 337 340 342 344 343 343 345 345 346 347 350 349 351 351 351 355 357 355 354 354 353 352 352 354 353 350 350 349 347 347 347 348 349 350 353 354 348 343 341 340 338 336 335 333 332 333 333 334 335 336 339 341 342 344 343 343 349 355 355 353 352 354 352 351 352 348 344 344 346 346 344 344 344 344 345 345 345 345 344 348 349 345 343 341
325 325 323 325 328 327 319 319 321 319 320 326 332 336 339 341 344 344 343 343 343 344 346 348 348 349 350 350 353 354 354 354 355 355 355 355 356 355 353 352 352 350 348 348 347 348 350 353 354 351 346 343 341 338 336 336 335 334 332 332 333 334 334 336 339 341 344 345 343 345 350 355 357 355 354 351 350 351 350 347 344 344 347 345 345 345 344 346 344 344 346 345 347 350 346 342 342
323 321 322 326 327 327 322 320 321 318 319 328 335 335 335 338 343 345 343 343 342 342 344 347 347 348 349 350 350 351 351 352 354 355 355 356 356 355 356 355 354 353 350 350 349 349 350 353 355 355 350 345 343 340 337 336 336 334 334 333 332 333 333 335 339 340 343 348 347 346 348 352 356 356 354 353 350 347 346 345 343 344 346 346 347 346 344 347 346 345 347 345 345 348 346 343 342
325 322 325 325 321 321 321 320 321 318 318 330 335 334 335 337 340 343 343 342 341 341 343 345 346 347 347 348 349 350 351 351 353 355 355 356 354 354 356 356 356 354 353 352 351 350 351 353 357 359 355 348 346 346 343 340 337 337 337 334 333 334 332 336 345 344 343 347 348 346 347 349 352 354 355 355 351 346 342 341 343 343 344 344 346 347 346 346 347 347 347 344 345 347 346 344 343
326 324 326 327 322 321 321 320 322 319 320 331 335 334 339 341 342 344 344 344 341 340 342 343 345 346 346 347 347 349 350 351 352 354 355 356 355 353 353 355 356 354 354 354 353 352 352 353 356 359 359 356 354 354 352 347 341 339 342 338 332 335 334 336 348 350 346 347 348 347 347 347 348 350 354 356 353 348 341 339 340 341 344 345 343 346 347 346 347 348 347 345 345 346 346 347 346
323 322 322 324 323 324 323 322 323 320 319 328 336 337 339 341 344 345 343 342 340 340 340 340 343 345 344 345 345 346 348 350 351 352 353 355 357 355 354 354 355 354 354 353 353 354 353 353 356 358 359 359 359 359 356 353 348 342 346 344 333 333 336 337 346 351 350 349 349 349 348 347 346 348 351 353 352 351 345 339 339 342 348 349 343 343 345 345 346 347 348 347 346 346 347 346 346
324 322 322 323 323 322 320 319 321 320 321 326 336 339 340 341 344 344 338 339 339 339 339 340 341 343 343 343 343 344 346 348 350 350 351 353 355 357 355 353 354 354 353 352 353 355 354 353 357 359 360 359 358 359 356 356 354 347 349 352 342 333 334 337 345 351 351 350 350 350 349 348 348 349 350 348 346 350 348 341 342 346 349 350 347 343 343 344 345 344 345 346 347 347 347 346 346
Wind_Speed
6 11 13 9 6 4 8 6 3 2 1 2 1 2 2 3 2 7 6 2 4 7 11 11 9 9 8 12 14 17 16 9 7 7 10 18 26 25 24 26 26 24 22 22 21 20 19 18 18 17 16 15 15 14 14 13 13 12 12 11 10 9 8 8 8 8 9 9 8 8 8 8 8 8 8 8 8 8 8 8 9 9 10 11 11 10 10 11 10 10 10 11 10 12 13 13 14
8 10 9 5 2 2 4 2 2 1 1 1 1 1 1 3 4 7 8 5 6 12 14 13 13 13 14 15 18 21 20 20 26 25 24 28 28 25 27 26 25 25 23 23 22 21 19 19 19 18 17 16 16 15 15 14 13 12 11 10 9 8 8 8 8 8 8 8 8 8 8 7 7 7 7 7 7 8 8 8 8 9 9 9 10 10 11 11 10 10 11 11 11 12 13 13 14
7 5 4 2 4 8 4 1 2 1 0 1 0 1 3 3 3 4 6 9 13 17 16 14 13 12 15 15 18 20 17 24 34 35 31 30 31 29 28 26 25 25 24 24 22 21 20 20 19 18 18 17 17 15 14 14 13 12 11 10 8 8 7 7 7 7 8 8 7 7 8 7 7 7 7 7 8 8 8 8 9 9 9 9 10 10 11 11 11 11 11 12 12 12 13 14 15
8 6 5 7 4 6 3 1 2 0 0 1 2 2 3 5 4 6 8 12 17 17 15 14 12 14 17 17 18 19 18 24 27 31 30 28 32 32 29 28 26 25 25 24 22 21 21 20 19 18 18 17 16 14 14 13 12 11 10 9 8 7 7 7 7 6 7 8 7 8 8 8 7 7 8 8 9 9 9 9 9 9 9 10 10 10 11 11 12 12 12 12 13 13 14 15 16
9 9 7 9 3 1 1 1 1 0 2 2 2 2 4 7 8 9 11 15 16 16 14 13 12 15 18 18 16 16 19 24 23 26 30 29 31 31 30 28 25 24 23 22 22 21 22 21 20 20 19 17 15 14 13 12 11 10 8 8 7 8 7 6 6 6 7 7 8 8 8 8 8 8 9 9 9 10 10 10 11 10 10 10 10 10 11 11 12 12 12 13 14 14 15 16 18
9 7 7 9 5 2 1 1 1 1 1 2 3 3 6 7 9 11 14 16 15 16 16 15 16 17 17 19 20 19 20 23 24 25 31 33 30 29 30 28 25 23 21 21 22 21 22 22 21 20 19 17 15 13 12 11 9 9 8 7 8 8 7 6 5 5 7 8 9 9 9 9 9 9 10 10 10 11 11 11 11 11 11 11 10 10 11 11 12 12 12 14 15 15 16 18 19
5 5 7 7 6 3 2 1 1 2 2 2 5 6 7 7 9 13 15 14 15 16 16 17 18 17 14 18 20 21 21 22 26 28 33 35 31 28 29 28 26 24 22 22 22 22 22 20 20 19 17 16 14 12 10 9 9 8 8 8 8 7 6 6 5 5 7 9 9 10 10 9 9 10 10 11 12 12 12 12 12 12 11 11 10 10 11 11 11 13 12 14 16 16 17 19 20
7 6 4 4 2 1 3 2 2 1 1 3 4 7 7 7 9 12 13 11 12 15 15 17 20 16 14 19 19 20 22 24 29 30 33 35 31 28 28 28 27 25 23 23 23 22 21 19 18 17 16 14 12 11 10 9 9 8 8 8 7 6 6 6 6 7 8 10 10 10 11 10 10 10 11 12 13 13 12 12 12 12 12 11 10 9 11 11 11 13 13 14 16 17 19 21 21
8 6 1 2 2 2 3 1 1 1 2 3 5 6 5 6 7 10 9 10 13 16 15 17 20 17 18 22 20 22 26 28 32 32 31 31 29 27 27 27 26 24 24 23 23 22 20 18 17 16 16 14 12 10 10 10 9 8 8 7 7 7 6 6 7 9 10 11 11 11 11 11 10 11 12 12 13 13 13 12 12 13 12 12 10 10 11 11 12 14 14 15 16 18 20 21 21
6 5 1 2 4 4 3 1 2 1 3 5 7 7 4 5 10 8 4 10 15 16 16 19 22 21 21 21 21 24 29 31 33 32 29 28 28 27 26 25 25 25 24 24 23 22 20 18 17 16 15 13 11 10 10 10 9 9 8 7 7 7 7 6 8 10 11 11 12 12 11 11 11 12 13 12 13 13 13 13 13 13 13 13 11 11 12 11 13 15 15 16 16 18 21 21 21
5 3 2 3 3 4 3 1 3 3 4 6 6 6 4 5 10 7 8 10 15 18 20 20 20 24 22 19 22 26 30 31 31 30 29 27 27 27 26 25 24 25 24 23 23 21 20 19 18 16 15 12 11 10 10 10 9 9 8 8 8 7 7 8 8 10 11 12 13 12 11 12 12 12 13 13 14 13 13 14 13 13 13 13 12 13 14 14 15 17 17 17 18 18 20 21 21
6 1 1 4 2 3 3 1 4 5 5 5 4 3 4 6 5 7 10 10 15 18 19 17 19 23 19 17 23 28 30 29 29 29 28 28 26 25 25 25 24 24 23 23 22 21 20 19 17 16 14 12 12 10 9 9 9 10 10 9 9 8 8 9 9 10 10 11 12 13 12 12 13 12 12 14 14 13 13 13 13 13 13 12 13 15 17 18 17 17 17 19 20 19 21 21 21
5 2 0 4 2 3 3 2 4 5 4 2 2 3 3 6 4 2 6 10 12 13 16 18 21 23 17 18 24 27 28 28 29 28 27 27 25 25 25 25 25 24 23 22 21 20 18 17 16 15 14 14 12 10 8 8 9 11 11 10 9 9 9 9 10 10 10 11 12 13 13 13 13 13 13 14 14 13 13 13 13 13 13 13 13 15 18 19 18 17 17 19 20 20 21 20 20
4 2 2 2 1 4 2 3 4 5 2 2 3 3 4 6 5 4 6 9 7 10 16 19 23 22 19 20 21 26 27 28 29 27 27 26 24 25 25 25 25 24 22 21 21 19 17 16 15 15 15 14 13 11 9 7 8 11 11 11 9 9 10 9 10 10 10 11 12 13 13 13 14 14 14 14 13 13 13 14 13 13 14 14 14 15 17 19 19 19 19 19 20 20 20 20 20
6 5 2 1 3 3 2 2 5 6 3 3 4 6 7 5 5 7 9 10 7 14 16 18 20 17 18 20 19 26 28 28 28 27 27 25 25 25 25 26 24 23 21 20 20 18 17 16 15 15 15 14 13 11 10 8 8 10 11 12 9 9 10 9 10 10 11 12 13 13 13 14 14 13 13 13 13 13 14 14 14 14 15 15 15 15 16 17 19 20 20 20 20 20 20 20 19
7 4 0 1 4 4 3 1 6 7 4 6 5 8 8 4 5 5 9 10 10 15 15 16 16 15 21 23 25 30 30 29 28 28 28 26 26 25 26 25 23 23 21 21 20 17 16 15 14 15 14 14 13 13 12 9 8 9 11 12 10 9 9 9 10 11 12 13 12 13 13 14 14 13 12 13 13 12 13 14 14 16 16 16 16 16 17 17 18 20 20 21 21 20 20 20 20
7 4 1 2 3 4 4 2 3 5 7 7 5 7 8 6 5 5 7 8 10 15 15 14 15 20 25 26 30 33 30 29 28 28 28 27 27 24 25 25 24 24 21 20 19 16 15 14 13 13 15 14 14 14 14 11 10 10 11 12 11 11 11 11 11 11 12 12 13 13 13 13 13 13 12 13 13 12 13 14 15 16 17 17 18 18 19 20 20 21 22 22 22 21 21 20 20
6 3 1 2 1 1 3 2 4 5 8 8 7 8 8 7 7 8 7 8 12 14 13 15 19 22 26 29 32 32 30 29 29 28 27 27 25 24 24 24 25 23 21 19 16 15 15 14 13 14 15 16 15 15 15 14 12 11 11 12 13 14 14 12 12 12 12 12 12 12 11 12 13 14 13 13 12 12 13 14 15 17 18 18 19 20 21 21 22 23 23 23 23 22 21 20 19
4 1 1 1 1 2 1 4 8 8 9 11 10 8 7 8 8 8 8 12 15 13 13 18 24 27 29 32 31 30 30 29 28 27 26 25 23 24 22 23 24 22 20 19 16 15 15 14 14 14 15 16 16 15 15 16 14 12 11 12 13 15 15 12 11 12 12 12 11 10 11 12 13 14 14 13 13 13 14 14 15 17 18 19 20 21 22 22 23 23 22 23 22 21 19 18 17
3 2 3 1 4 3 3 6 10 12 13 13 11 8 7 7 5 3 6 13 14 11 14 19 26 31 32 31 30 30 29 27 27 25 25 24 22 22 21 21 23 20 18 18 18 16 15 16 15 14 14 15 15 15 15 16 16 14 12 12 13 14 15 13 12 12 12 12 12 11 12 13 14 14 14 14 14 15 15 15 16 17 18 19 19 21 21 21 20 19 19 19 19 17 15 15 15
2 3 3 2 7 3 6 9 11 14 13 12 12 9 7 4 2 5 1 7 10 11 16 23 28 33 33 32 31 29 28 27 26 24 23 23 22 21 20 19 20 20 18 17 18 16 15 15 15 15 14 14 13 14 15 15 16 14 13 12 12 12 12 14 14 14 14 13 13 12 12 13 14 15 15 16 16 16 17 17 17 17 17 17 18 19 18 18 18 17 17 16 16 14 13 12 13
4 4 2 3 10 5 8 13 13 13 11 11 11 8 6 3 4 9 5 1 6 13 19 25 29 32 34 32 30 28 28 27 25 24 23 23 21 20 20 18 19 19 18 17 16 16 15 15 15 15 15 14 13 13 14 15 15 15 15 14 14 13 12 13 14 15 15 14 14 13 13 14 16 17 17 17 16 16 16 16 16 16 16 15 16 15 14 15 16 16 15 15 14 12 11 11 10
5 4 2 4 12 11 11 16 15 13 11 11 9 7 6 5 5 5 3 2 5 16 21 25 28 30 32 31 30 28 27 26 25 23 23 22 21 20 20 19 19 18 18 17 16 15 15 15 15 15 15 15 14 13 13 14 14 15 16 16 16 16 14 12 13 15 15 14 14 14 14 15 16 16 17 17 16 16 16 16 16 15 15 14 13 12 12 14 14 14 14 15 14 13 14 13 12
6 1 2 6 13 17 15 17 17 15 12 12 9 7 7 7 4 2 4 6 9 18 22 25 27 28 30 29 29 28 27 26 24 23 22 21 20 20 20 19 19 18 18 18 18 16 13 14 16 16 14 14 14 13 13 14 14 15 15 15 16 17 16 13 12 14 14 13 14 13 14 15 14 15 16 17 17 16 16 16 15 14 13 12 13 11 11 13 13 15 15 14 13 13 14 13 13
7 1 5 7 15 21 19 20 18 17 14 11 10 7 8 7 4 2 5 4 11 22 22 25 27 27 28 28 28 27 26 25 23 22 21 20 20 20 19 19 19 18 19 18 19 17 13 13 14 13 13 14 15 13 14 15 14 15 15 15 15 15 16 14 12 12 12 13 14 14 14 14 14 14 16 17 16 17 16 15 13 12 12 12 13 12 12 13 13 16 15 12 12 12 12 12 12
3 3 8 8 17 24 21 23 19 17 15 12 10 7 7 7 5 0 5 1 11 21 22 25 27 27 27 26 27 26 25 25 24 23 21 20 20 20 19 19 19 18 19 18 18 19 18 15 12 11 12 14 14 13 14 15 14 15 14 14 14 15 17 15 14 12 13 15 15 14 14 14 14 15 17 16 16 17 16 15 12 11 12 12 13 12 13 14 14 16 16 13 12 11 11 12 11
8 9 10 11 17 24 19 23 20 17 15 12 10 7 7 7 5 1 5 4 9 21 23 25 26 26 26 26 26 24 25 25 23 23 21 21 21 20 20 19 18 19 19 18 18 19 20 18 15 13 12 12 11 12 14 13 13 14 14 13 12 15 20 19 18 17 15 16 15 15 15 15 15 15 16 14 13 14 14 13 11 10 11 12 12 12 12 14 14 15 16 14 11 11 11 11 10
12 11 10 12 13 22 18 21 19 16 12 12 13 9 7 6 2 3 7 7 11 21 23 24 25 25 25 26 25 23 24 24 23 22 21 21 21 19 19 19 19 19 19 18 19 19 19 19 18 17 15 12 9 11 13 11 12 13 12 13 11 12 17 20 22 22 20 16 15 16 17 17 16 16 15 13 12 11 12 11 9 9 10 11 10 11 11 12 12 13 14 14 11 11 12 10 9
10 9 8 10 10 15 16 18 14 11 10 15 15 10 4 2 3 7 10 8 14 21 22 24 24 24 25 25 24 23 23 23 22 21 21 21 20 19 18 19 19 19 18 18 19 19 19 18 17 17 17 15 12 12 13 11 12 12 11 13 13 11 13 17 19 21 21 17 14 16 17 17 17 15 13 12 11 10 10 9 8 9 10 10 10 10 10 11 11 12 14 14 12 11 11 11 9
8 8 7 8 8 8 12 15 10 8 11 18 12 5 4 5 6 11 11 10 16 21 22 24 24 24 25 24 23 23 23 22 22 21 21 21 20 19 18 19 19 19 19 18 18 19 19 18 17 16 16 16 15 14 14 13 13 13 12 13 14 11 10 14 14 16 20 18 15 14 15 16 16 15 13 12 11 10 10 9 8 9 10 10 11 11 11 12 12 13 14 13 12 10 9 10 8
7 8 7 7 4 6 10 14 13 8 12 20 10 2 6 7 9 13 11 11 17 20 22 23 23 24 24 24 23 22 23 21 21 21 21 21 20 19 19 19 19 18 19 19 19 19 18 18 17 16 17 16 15 15 14 13 13 13 12 13 13 11 10 12 11 13 18 18 15 14 14 15 16 16 15 13 12 11 9 9 9 10 10 10 10 11 12 12 12 12 13 12 12 9 7 8 8
7 7 6 7 4 5 9 13 15 11 12 16 9 2 6 8 11 15 12 12 15 17 22 22 23 25 24 24 23 22 23 21 21 21 21 21 20 20 20 19 19 18 19 19 19 19 18 18 16 16 17 16 15 15 15 14 13 13 12 12 12 11 10 10 11 11 14 16 15 13 13 14 15 16 16 15 12 11 9 9 10 11 10 9 9 10 10 11 10 11 12 13 13 11 8 7 7
8 7 5 7 6 7 5 3 8 14 13 9 5 2 5 7 13 17 12 12 13 13 20 22 22 25 24 23 23 23 23 21 22 21 21 21 20 20 20 19 19 18 18 20 20 19 18 18 16 16 17 16 15 15 16 15 15 14 13 11 11 10 9 9 10 11 11 13 14 12 12 12 14 15 15 15 13 10 9 9 11 11 10 10 10 10 11 10 10 10 11 11 12 12 10 7 5
7 7 6 7 7 7 7 1 2 11 11 8 8 5 5 7 13 17 13 12 13 10 15 22 22 23 24 23 22 23 23 22 22 22 22 21 20 21 20 20 19 18 19 19 19 19 18 18 17 17 17 16 16 15 15 15 14 14 13 10 10 10 8 9 10 11 10 10 13 13 12 12 12 13 13 14 13 10 10 10 10 11 10 10 9 9 10 10 9 9 10 11 11 10 10 8 6
8 8 5 7 6 4 9 6 5 9 8 8 10 7 7 9 12 15 11 10 11 10 10 16 22 23 23 24 23 23 23 22 22 23 22 20 20 21 21 20 19 19 19 19 19 19 18 18 17 17 17 16 15 15 14 14 14 14 12 9 9 9 8 9 10 11 11 10 13 14 13 13 11 12 13 14 13 10 9 10 11 11 10 10 9 9 9 9 9 10 10 11 11 9 9 9 7
8 9 7 7 5 6 8 10 9 10 9 8 7 6 7 9 11 11 8 9 10 8 8 10 16 24 23 23 24 24 23 22 22 23 22 21 21 21 21 20 20 19 20 20 20 19 18 18 17 17 16 16 15 15 15 14 15 14 12 10 9 8 7 9 10 11 11 11 13 14 14 14 13 13 12 13 13 11 10 11 11 11 11 10 10 10 8 8 9 10 10 10 11 10 8 8 6
8 7 8 7 6 7 10 12 12 11 8 7 8 7 6 4 7 8 10 12 8 5 7 14 12 19 23 23 24 24 23 22 22 23 22 21 21 21 21 20 19 20 20 22 21 19 19 18 18 19 17 16 15 15 15 14 15 14 12 11 9 8 8 9 10 10 10 11 13 14 14 14 14 12 12 12 13 13 11 11 12 12 11 11 10 10 8 8 8 10 11 11 11 10 8 6 4
10 7 6 7 8 6 12 12 13 12 7 8 10 9 7 5 6 6 10 12 9 9 13 14 13 17 22 22 24 25 23 23 23 23 22 21 22 21 22 21 20 21 21 21 21 19 20 18 19 20 17 16 15 15 15 14 14 13 12 11 8 9 9 8 9 9 10 12 12 13 13 14 14 12 12 13 13 13 12 12 12 12 11 11 10 10 10 9 9 10 11 11 11 10 9 6 4
10 7 5 7 6 5 11 12 13 10 5 9 12 10 8 7 5 6 4 5 7 10 13 10 11 15 19 20 23 25 23 24 24 24 23 22 22 22 22 22 20 21 21 21 21 20 20 19 19 20 17 16 16 16 15 14 14 12 12 11 8 8 9 8 8 8 9 10 11 12 12 13 13 12 12 12 12 13 13 12 12 12 12 11 10 11 11 10 10 11 11 11 10 9 9 6 6
9 6 6 6 7 8 7 10 13 11 6 10 13 10 7 7 5 4 1 2 3 6 10 6 10 11 12 16 21 24 24 25 25 24 24 23 23 22 22 22 21 21 21 21 21 21 20 20 20 20 17 17 17 16 15 14 14 14 12 10 9 8 8 8 8 8 8 8 9 11 11 11 12 12 11 11 11 12 12 12 12 12 12 12 11 11 11 11 10 10 10 10 10 8 7 6 5
7 8 7 5 9 8 9 12 12 11 8 10 12 9 6 8 9 4 2 4 6 8 11 7 8 13 11 11 16 22 24 24 25 25 24 24 24 23 22 22 22 22 21 21 22 21 20 20 20 20 18 17 17 17 17 15 15 16 15 12 12 11 9 9 9 8 8 8 8 9 9 10 11 11 11 10 11 11 12 12 12 12 12 12 12 11 12 11 10 9 8 9 10 10 8 6 5
7 9 8 6 9 7 12 19 13 7 7 11 11 6 4 7 10 8 4 5 7 9 9 8 11 14 11 11 13 19 23 23 25 25 24 24 24 23 23 23 22 22 22 22 21 20 20 20 20 20 19 17 17 18 18 16 15 17 17 15 14 14 12 11 10 8 8 8 8 9 9 9 10 10 10 10 10 10 12 12 12 12 12 12 12 11 12 11 9 8 8 9 10 11 10 7 6
6 9 11 9 10 9 8 15 11 6 5 12 15 5 4 4 5 6 5 6 6 5 4 6 12 14 12 9 12 17 21 22 23 24 24 24 24 23 23 23 23 23 22 22 21 20 21 21 20 20 20 18 18 18 18 17 15 16 17 16 14 14 13 12 11 9 7 7 8 9 9 9 9 10 10 10 9 9 10 12 12 12 12 11 11 11 11 10 9 8 8 8 9 10 11 10 6
7 9 13 12 10 10 9 10 9 6 4 10 15 7 5 3 2 2 2 7 9 6 2 3 11 16 13 9 13 17 20 22 22 23 23 24 24 24 23 23 23 22 23 23 22 22 22 21 21 20 20 19 19 19 19 18 16 15 15 15 13 12 11 12 13 10 8 9 9 9 9 9 9 9 10 9 9 9 9 10 11 12 11 10 10 11 11 10 9 9 9 8 9 10 12 12 9
11 6 5 11 12 10 10 9 6 4 3 6 11 9 6 3 1 3 0 4 8 9 7 5 8 12 12 10 12 13 14 17 21 22 22 23 24 24 23 22 23 22 22 23 22 23 23 21 21 21 20 20 20 19 19 19 18 17 16 14 12 11 9 11 14 11 9 11 12 11 10 9 9 9 9 9 9 10 9 9 10 10 11 11 11 10 10 10 9 8 8 9 9 9 9 10 10
11 4 4 7 12 10 9 7 5 4 4 6 9 10 7 3 3 4 3 4 4 6 8 8 10 10 11 11 11 10 10 12 16 20 21 23 23 23 23 22 22 22 22 23 22 23 23 22 21 22 21 21 21 19 19 19 19 19 18 16 15 13 11 11 13 13 12 13 13 13 10 9 10 9 9 9 9 10 9 9 9 9 10 10 11 10 8 8 9 8 8 9 9 9 8 9 9
11 5 3 5 6 8 8 5 5 6 6 9 8 11 9 4 4 4 4 5 2 3 6 7 10 11 11 12 12 10 9 10 14 17 17 21 23 22 22 23 22 22 23 23 22 23 23 23 23 23 21 20 21 20 19 19 20 20 19 18 17 16 14 13 13 14 14 14 12 12 11 9 10 9 9 9 9 10 10 10 10 9 9 10 10 9 8 7 8 8 8 9 9 8 8 9 8
10 8 7 5 4 6 7 6 8 7 5 10 8 12 8 2 4 4 6 8 4 2 3 5 6 7 8 11 11 9 9 11 13 14 15 19 23 24 23 23 23 22 23 23 23 24 24 23 24 24 23 21 20 21 20 19 20 20 20 20 18 18 16 15 15 14 14 14 12 11 11 11 11 10 9 9 9 10 10 10 10 9 9 10 9 9 9 8 8 7 8 8 8 8 8 7 8
8 8 7 6 6 7 6 6 8 7 6 10 8 9 8 4 6 7 8 10 7 4 5 6 5 3 3 5 7 8 12 16 16 16 17 17 20 24 24 24 25 24 24 25 23 24 24 24 25 25 25 23 21 21 21 20 20 20 20 20 19 18 17 16 15 14 13 13 13 11 11 13 12 11 10 10 10 10 10 10 11 9 9 10 10 10 10 10 9 8 7 8 8 8 7 6 7
9 9 7 8 7 7 7 7 7 7 8 9 6 10 7 6 8 8 9 10 10 10 11 12 9 5 5 5 3 5 9 16 18 19 19 16 17 23 25 25 27 25 24 25 24 24 25 24 25 26 25 25 23 21 21 22 21 20 20 20 20 19 18 17 15 14 14 14 14 12 11 12 12 11 11 11 11 10 9 10 10 9 9 9 9 9 10 10 10 9 8 8 8 8 7 7 7
10 9 7 9 8 7 7 7 7 7 7 8 9 9 6 6 7 9 11 12 13 15 16 17 13 9 9 9 6 4 6 12 15 16 17 16 16 20 24 24 26 26 24 25 25 25 26 26 26 27 26 26 25 24 23 22 22 21 21 20 20 20 19 18 17 15 14 15 15 14 12 11 11 12 12 12 12 11 10 10 10 9 9 9 9 9 10 11 10 9 9 9 8 7 7 7 8
9 7 7 7 8 7 6 6 8 9 6 6 7 6 6 7 8 10 13 14 16 18 18 18 15 13 13 12 10 7 8 11 12 13 15 15 13 17 23 22 23 26 25 25 25 26 27 27 27 27 26 26 26 25 24 24 23 22 22 21 21 20 20 19 18 17 16 16 15 15 15 13 12 12 13 13 13 12 10 10 10 9 9 9 9 10 10 10 10 9 9 9 9 7 8 8 8
5 9 10 8 10 10 7 5 8 10 7 5 6 9 9 8 8 9 12 14 15 17 18 17 14 13 14 13 12 8 8 10 9 11 13 12 11 16 22 21 20 24 25 25 26 27 27 27 27 26 26 27 26 25 25 25 25 24 23 23 22 21 21 20 20 19 18 17 16 16 16 15 14 13 13 13 14 14 12 11 11 10 10 9 10 10 10 10 10 10 9 9 9 8 8 8 8
5 5 5 7 11 11 5 3 5 8 6 5 9 14 12 8 7 8 10 14 15 14 15 15 13 13 15 14 13 9 6 10 10 9 10 11 11 14 17 17 18 23 25 25 25 26 27 26 27 26 26 28 27 25 25 25 25 25 25 24 23 23 22 21 21 20 19 18 17 17 16 17 16 15 14 13 13 15 14 13 12 11 11 10 10 10 10 10 10 10 9 9 9 9 8 9 8
9 5 6 6 8 7 5 3 4 7 6 7 11 14 11 6 6 8 9 12 14 14 14 14 13 13 15 15 14 12 8 10 10 6 4 6 11 16 16 14 15 18 22 24 24 24 25 25 25 26 26 27 27 26 25 25 25 26 26 25 24 23 23 22 21 20 20 20 19 19 17 17 18 16 16 15 15 15 15 14 13 12 12 12 11 11 10 10 10 10 10 10 10 9 9 9 9
10 8 8 8 5 4 6 6 5 7 5 8 10 9 5 3 3 7 9 9 11 15 14 12 12 12 14 15 15 14 12 10 9 7 6 3 5 15 19 15 12 13 16 21 21 20 22 24 24 26 26 25 26 26 25 25 25 25 25 25 25 24 23 23 22 21 21 21 21 20 19 19 19 18 19 19 17 16 16 15 14 13 13 12 13 12 11 11 11 10 10 11 11 10 9 9 9
8 7 8 7 4 4 5 7 6 7 4 6 9 7 3 1 1 5 10 11 13 15 13 12 13 13 13 15 15 15 13 12 14 14 11 9 5 4 14 17 16 14 15 21 22 18 18 21 21 23 25 25 25 25 24 24 24 24 24 24 25 24 24 23 23 23 22 22 22 21 20 20 19 18 19 20 18 17 16 16 15 14 13 13 13 13 13 12 12 12 11 11 11 11 10 10 10
3 6 7 6 6 5 5 7 8 8 3 5 9 7 6 4 2 3 8 11 14 17 16 13 14 14 13 14 15 16 15 14 14 15 15 14 12 6 6 15 18 17 16 20 21 18 19 20 19 20 23 24 24 24 23 23 24 23 23 23 24 23 24 24 24 24 24 23 23 23 21 20 20 19 19 19 19 18 17 17 16 15 15 14 14 14 14 14 13 13 12 11 12 12 11 11 11
Wind_Direction
139 131 116 107 93 137 208 232 257 254 219 297 326 70 297 275 196 140 136 151 107 118 108 103 109 98 85 83 86 64 43 54 79 92 117 139 142 138 143 149 147 143 144 144 142 141 142 140 138 135 135 133 126 121 119 119 120 118 114 112 108 98 90 88 90 95 100 103 103 100 99 100 99 100 103 103 104 102 98 97 93 91 89 89 90 94 96 94 95 99 101 102 103 107 108 106 105
129 119 98 84 74 206 226 230 246 260 198 243 323 90 199 234 183 144 138 154 130 121 113 102 100 90 86 85 83 71 53 68 88 98 116 135 136 136 143 144 144 144 144 141 142 141 140 137 133 133 133 131 124 119 119 123 124 120 116 114 107 97 94 93 95 98 97 96 98 100 101 101 99 103 107 107 105 102 99 96 92 88 86 88 91 98 101 100 102 104 105 109 109 109 110 108 106
136 119 76 141 214 225 213 127 246 304 297 160 116 185 175 168 130 145 167 159 125 115 110 101 96 91 91 82 77 83 80 84 96 107 120 135 135 138 141 140 143 144 143 141 143 139 135 132 130 132 132 129 123 120 122 124 124 121 119 114 107 101 100 99 101 100 97 96 101 108 106 102 101 104 105 102 98 98 98 96 93 90 88 88 92 96 97 100 104 105 107 113 112 111 112 110 107
158 172 198 199 214 233 204 175 238 353 292 177 164 191 175 144 159 213 187 146 120 111 104 97 89 85 91 90 89 93 97 95 103 114 125 138 137 139 141 140 141 140 141 142 142 136 133 130 129 131 129 128 124 124 125 124 124 122 118 114 110 104 99 95 96 97 97 98 107 113 108 102 102 104 101 99 98 101 99 98 97 95 93 89 90 93 94 99 104 106 106 111 113 112 112 110 109
150 165 207 212 224 234 201 242 206 195 220 187 160 188 206 165 172 193 160 134 115 110 106 102 93 91 90 91 99 102 108 109 111 118 126 135 135 138 139 137 136 137 139 141 140 135 132 130 128 129 127 128 128 129 126 124 123 120 117 115 110 101 96 92 91 93 97 103 111 114 111 103 102 103 102 101 100 102 99 97 99 96 96 94 93 93 96 101 104 106 108 112 114 114 113 111 110
152 176 216 220 230 202 245 272 185 219 253 223 151 166 217 175 165 166 141 127 113 111 108 100 97 97 90 88 97 108 119 118 117 124 128 132 134 133 131 132 134 135 137 140 139 134 132 130 129 128 127 128 129 128 124 121 120 118 118 112 104 98 95 93 92 97 103 111 115 116 113 106 105 106 104 103 101 101 98 96 98 95 93 93 94 94 97 102 105 107 111 116 115 114 113 112 112
191 221 211 219 228 211 258 267 229 197 293 294 136 162 196 167 170 158 135 126 115 111 108 105 104 99 95 98 97 105 118 120 121 128 131 132 133 132 130 132 133 132 135 139 137 132 129 128 129 129 127 126 125 124 123 122 120 121 115 104 100 98 94 88 91 102 108 111 114 115 112 109 109 107 104 104 101 98 96 95 94 92 90 88 89 93 96 100 105 108 112 115 115 113 112 113 113
229 253 217 239 238 196 256 268 278 157 283 295 140 168 170 172 187 152 131 130 120 114 111 111 109 100 98 102 98 105 115 119 122 127 129 130 132 134 134 132 129 130 136 137 134 131 129 129 129 126 124 122 122 125 126 126 123 116 105 101 102 97 96 95 99 106 113 114 115 116 115 115 110 105 106 104 99 97 96 94 93 91 89 89 89 92 96 102 108 109 112 114 116 114 113 115 114
229 254 235 259 258 248 259 291 305 108 165 195 165 166 161 196 164 123 131 130 121 114 110 112 109 104 103 102 102 110 116 120 123 125 127 129 132 133 132 131 130 134 136 135 134 132 131 129 125 120 120 122 127 130 129 128 119 105 103 106 100 94 96 101 104 106 116 120 118 119 119 118 111 110 110 105 100 99 97 94 93 92 90 92 92 91 94 103 109 111 114 116 117 116 115 116 115
231 244 277 263 261 266 260 155 184 154 167 160 158 159 187 191 104 94 170 127 123 117 109 113 108 106 107 105 107 116 122 125 125 125 128 130 132 131 130 130 132 136 135 135 136 134 133 129 124 122 123 128 131 129 126 123 112 104 107 106 97 95 98 102 105 107 115 120 120 120 120 118 115 114 111 106 104 102 98 93 91 92 93 95 96 95 97 101 105 113 120 120 120 118 118 119 117
238 246 336 281 274 287 299 107 178 171 154 139 149 164 178 143 104 147 182 123 120 119 118 119 112 111 109 105 110 121 127 129 127 127 129 129 130 130 129 130 133 136 135 135 135 134 133 129 128 127 128 130 128 124 122 119 116 115 112 105 99 100 104 109 110 110 117 121 123 123 122 120 116 114 110 109 107 103 97 93 91 90 92 94 97 99 102 105 105 114 120 120 121 121 120 120 116
248 284 39 284 304 295 310 87 178 156 131 134 157 192 158 118 108 154 151 126 121 120 125 123 116 116 111 109 118 128 132 132 131 131 129 128 130 130 131 132 132 134 134 134 133 133 132 130 130 128 128 126 122 122 120 121 123 118 112 108 103 103 107 114 117 117 119 122 126 126 122 118 115 113 110 110 108 103 97 96 94 90 91 92 97 99 103 108 106 110 114 116 119 121 120 117 112
257 44 90 288 356 301 301 117 167 139 120 166 192 228 155 107 88 116 130 123 114 115 123 123 123 119 114 118 127 135 135 134 133 133 131 129 131 131 131 132 132 132 132 132 130 130 129 129 129 127 128 125 124 124 119 124 126 118 113 111 107 108 113 117 120 122 122 121 125 125 120 115 113 112 111 112 109 105 102 99 95 91 93 93 95 98 105 110 108 108 110 115 118 118 118 114 110
232 205 215 298 347 292 307 120 161 144 146 236 232 205 123 105 132 180 147 116 107 134 131 132 128 117 120 126 133 139 136 137 136 134 133 130 131 131 132 132 132 132 132 133 131 131 131 131 131 131 131 128 129 128 123 125 122 117 113 111 111 113 116 118 120 125 124 121 125 124 120 117 115 112 112 112 107 105 103 98 95 94 96 96 94 98 104 110 111 109 109 114 116 116 115 111 109
242 236 207 324 312 298 7 104 162 147 166 200 201 161 116 100 155 165 145 126 148 154 135 135 131 121 136 139 141 143 140 140 138 135 134 131 130 130 131 132 132 131 133 135 133 134 135 136 137 135 134 132 133 131 129 130 122 119 117 116 121 120 119 121 123 126 125 127 129 126 122 120 117 112 110 109 106 106 102 98 97 96 97 97 96 98 102 106 111 112 113 114 114 112 110 107 108
262 269 123 332 323 335 14 75 156 140 159 174 157 146 127 112 153 149 138 139 158 153 138 140 140 135 143 142 141 143 142 141 139 136 135 133 132 128 127 131 133 133 136 137 136 137 138 140 140 138 138 137 137 134 132 135 128 124 123 124 129 121 118 125 126 125 126 132 129 123 123 121 117 113 111 109 108 107 103 99 99 98 98 97 97 99 102 104 109 114 115 115 115 113 111 111 110
263 265 292 312 334 342 346 17 148 145 143 145 142 153 136 123 166 165 144 153 158 145 139 144 142 137 140 141 140 142 142 141 140 138 137 136 136 132 131 134 136 140 143 141 140 141 141 141 142 143 144 143 142 138 135 137 132 127 126 127 128 121 123 129 127 123 124 129 125 121 122 123 121 117 115 113 112 110 104 100 99 100 100 99 98 99 102 105 108 110 113 115 117 118 115 114 111
256 273 343 311 315 348 330 40 115 142 134 140 166 167 136 133 175 175 166 179 162 138 130 136 136 133 135 138 140 141 143 142 142 141 140 140 140 139 139 139 141 148 148 142 144 146 147 147 149 150 149 148 145 141 139 139 137 135 131 128 128 124 126 130 127 123 121 123 121 122 126 128 126 121 120 118 116 113 108 105 103 103 102 100 100 101 103 105 106 107 109 112 116 117 114 110 109
234 302 291 259 83 60 37 117 125 138 146 149 154 152 136 143 170 178 171 166 154 136 131 133 129 127 132 139 142 143 145 144 144 145 143 143 144 142 143 143 143 150 149 144 147 149 150 150 152 151 149 149 146 144 142 140 138 139 137 131 129 125 126 128 125 122 119 118 119 125 130 128 123 122 124 121 119 116 110 108 106 106 104 102 103 104 105 105 105 106 107 109 111 110 107 102 100
193 149 263 120 105 83 98 120 122 135 145 140 134 138 141 143 162 195 172 157 148 139 141 137 131 132 138 143 144 145 147 146 146 147 145 145 145 143 144 145 144 147 148 147 147 150 151 152 153 148 146 145 144 144 141 140 138 139 141 134 126 123 126 124 120 122 117 115 121 125 125 122 120 121 123 121 120 117 113 111 109 109 108 108 109 106 106 107 106 107 107 107 106 102 100 97 91
174 176 263 121 132 122 118 120 118 131 137 128 122 128 136 138 74 27 32 164 146 143 147 141 138 140 143 145 146 148 148 148 149 149 147 146 146 145 145 145 144 144 146 144 145 149 153 154 152 146 144 140 140 142 140 140 138 141 147 137 124 116 118 121 124 127 119 114 119 120 119 118 117 117 119 120 119 116 115 115 112 111 111 113 111 107 105 105 104 103 102 100 97 91 89 90 87
206 214 257 154 150 145 125 126 121 124 124 115 111 123 146 150 55 35 22 238 146 144 145 143 143 144 145 147 148 149 149 150 152 151 150 149 147 146 145 144 143 142 144 144 148 151 151 153 150 147 146 138 138 141 137 133 132 138 143 138 128 115 111 119 126 127 122 119 122 121 121 121 118 117 118 117 117 119 119 118 117 115 114 116 113 108 106 107 104 101 99 99 100 104 105 99 95
225 207 248 226 153 143 132 127 125 124 121 113 113 143 150 117 72 46 109 210 182 146 142 143 144 146 147 148 150 151 152 153 154 154 152 150 149 148 147 146 145 145 144 145 150 150 146 148 149 149 145 138 140 141 135 131 129 133 140 140 132 123 119 122 125 126 127 127 126 122 121 125 121 119 119 116 116 118 119 120 120 117 116 118 113 109 112 112 107 103 102 103 108 124 128 123 125
242 252 274 253 137 130 132 129 131 128 120 114 123 143 124 105 101 145 186 227 194 150 143 145 146 149 149 149 152 153 154 154 155 155 153 151 150 148 147 147 146 145 145 145 147 148 148 146 147 147 143 139 139 140 140 137 132 133 138 138 131 129 127 126 126 126 132 133 131 126 124 130 128 122 122 119 117 116 119 121 121 118 115 113 107 108 119 119 115 113 107 105 110 114 115 118 126
217 220 293 275 125 128 132 128 130 124 116 121 126 121 119 123 123 202 268 259 167 150 146 147 148 151 151 153 154 154 156 155 154 155 153 152 151 149 148 147 146 145 146 146 145 148 149 145 144 143 142 141 138 140 142 137 137 137 138 135 131 131 125 126 131 128 136 142 137 130 127 133 132 127 125 123 122 119 119 121 121 119 118 115 110 113 120 120 122 120 111 107 109 105 106 108 107
215 189 276 279 128 132 132 125 129 123 123 137 127 111 129 135 111 246 283 294 148 148 147 149 151 153 154 155 155 156 158 155 156 157 154 154 153 151 150 148 146 146 147 145 145 147 147 146 144 141 143 140 135 140 142 139 140 136 135 134 129 128 124 126 133 129 135 143 139 131 130 131 129 129 129 127 125 124 124 124 122 120 121 119 117 120 122 122 124 120 114 109 108 107 106 102 102
232 211 246 264 123 125 131 125 129 125 129 144 130 122 128 120 100 146 249 247 158 147 148 153 153 154 156 155 155 158 159 157 159 156 155 157 154 153 153 150 149 147 147 147 148 150 149 149 147 145 146 138 133 140 137 134 133 131 132 130 127 133 131 128 129 129 135 142 141 136 136 134 127 128 129 124 122 124 125 125 126 123 118 117 119 121 122 123 124 121 116 114 117 115 106 105 113
217 213 227 246 124 124 137 124 127 128 134 149 132 115 103 99 98 201 225 234 168 153 153 156 155 156 156 153 156 160 159 159 158 157 158 157 155 156 154 152 150 148 149 150 150 150 148 149 149 148 149 143 139 137 126 120 124 125 128 125 123 129 126 122 123 128 135 138 139 140 140 138 131 131 131 128 128 123 118 124 131 123 117 120 122 120 122 124 124 123 119 116 118 115 109 112 112
219 221 225 226 143 127 124 110 122 130 139 154 131 102 100 157 186 187 208 208 167 162 159 157 158 157 155 153 157 161 159 159 160 159 158 156 157 158 155 154 152 149 151 151 150 149 147 149 149 149 150 143 140 137 129 128 129 128 130 127 122 121 117 115 117 126 133 133 135 141 143 140 136 137 136 132 131 126 124 132 132 123 121 124 120 116 121 123 121 120 115 110 105 103 108 111 108
226 231 240 220 159 125 107 107 137 142 144 160 144 105 177 206 197 184 197 197 175 170 164 161 160 159 156 155 159 160 159 162 163 161 158 157 160 159 156 156 153 150 151 150 150 149 148 150 148 150 150 141 142 145 140 139 138 136 136 128 122 125 124 118 121 127 130 131 136 140 141 139 138 138 137 138 141 140 138 137 131 125 123 123 122 118 115 114 117 117 112 108 102 97 104 112 117
225 233 236 226 183 143 140 143 161 156 153 168 164 113 183 192 201 196 197 196 185 174 167 165 161 160 158 157 161 159 160 166 164 160 159 159 161 160 158 156 152 151 151 150 152 150 150 150 148 153 150 142 149 147 140 140 137 134 131 129 131 136 132 122 128 129 123 129 138 138 139 142 142 140 138 142 147 149 146 142 137 132 127 126 128 125 118 114 115 115 112 113 113 108 107 113 121
222 233 222 220 202 146 155 158 161 152 156 178 177 132 181 183 190 193 196 201 198 181 171 169 165 162 158 159 163 160 161 167 164 160 160 162 164 160 157 156 153 152 152 152 153 152 151 149 149 156 151 145 153 151 144 142 137 134 133 138 140 139 138 124 123 124 117 125 135 137 143 146 146 144 141 137 138 143 146 148 142 137 136 133 133 130 125 122 117 114 113 114 117 118 110 103 113
206 222 227 222 197 153 150 156 156 147 146 176 190 156 172 177 183 182 188 203 207 195 176 171 168 163 158 162 165 160 163 167 164 164 163 164 165 160 158 156 154 153 153 153 154 154 152 149 150 153 151 151 156 156 151 146 144 140 139 144 141 136 139 127 122 122 120 127 132 137 143 142 145 151 146 135 133 137 138 146 145 142 141 136 137 130 124 129 125 115 114 116 115 112 109 98 91
194 209 223 233 220 165 143 103 183 161 148 165 181 185 177 167 175 176 181 197 206 213 185 172 172 166 160 166 167 161 165 168 165 165 165 167 165 159 159 156 155 154 152 154 154 154 153 148 151 153 154 158 158 158 154 151 148 138 138 151 146 140 137 131 127 120 120 126 127 134 138 135 142 150 147 135 133 135 136 143 146 145 143 140 137 123 119 129 128 118 117 119 114 110 117 118 104
195 199 211 230 228 124 130 151 203 185 154 161 176 182 174 158 166 174 179 191 202 222 211 181 174 169 163 169 169 163 168 169 166 166 165 167 164 159 160 157 156 155 153 156 154 155 154 148 156 160 157 161 160 158 157 154 147 135 141 155 147 145 141 132 125 116 119 123 125 133 137 137 139 144 148 142 136 139 141 144 147 144 143 142 136 124 124 131 129 124 125 125 116 109 115 117 115
217 191 199 228 201 113 138 156 167 172 152 156 171 162 155 154 165 166 167 196 199 204 250 241 189 170 168 174 169 164 169 169 166 167 166 167 164 161 161 157 157 156 157 158 155 159 157 153 162 161 158 166 164 159 159 156 148 141 147 157 151 150 144 130 119 115 124 128 130 138 139 139 140 142 148 143 137 143 146 145 146 144 144 144 137 130 130 134 130 126 135 140 120 108 105 104 110
271 209 187 221 214 149 155 154 150 164 162 156 157 135 126 163 176 146 150 188 192 166 241 264 227 177 172 177 169 164 169 168 167 166 166 167 164 162 161 159 158 156 160 159 157 161 158 158 164 160 163 173 168 161 162 159 153 148 152 157 155 147 141 136 126 121 127 127 130 137 139 140 141 142 142 137 139 144 145 147 147 146 149 148 141 139 143 143 134 128 135 136 122 113 105 97 102
275 254 186 203 233 160 142 148 155 170 172 155 148 125 130 193 196 140 147 177 180 184 210 237 233 190 178 179 167 165 170 167 167 166 167 168 164 165 162 162 161 157 161 160 158 162 159 162 163 160 170 176 171 165 161 161 158 154 153 160 165 152 147 143 133 125 125 126 129 135 138 139 141 143 139 138 143 143 144 150 151 153 154 149 144 143 145 146 140 136 134 126 119 118 114 119 111
249 252 204 203 215 134 135 149 156 175 178 150 144 123 141 189 180 136 153 192 169 188 212 234 237 201 184 183 167 165 170 166 167 167 168 170 166 166 164 165 165 159 162 161 161 164 160 167 166 162 173 174 171 170 164 165 162 152 151 162 169 153 149 146 136 128 123 125 129 133 137 138 139 142 139 139 143 144 146 151 153 156 154 148 146 142 142 147 142 139 137 124 114 112 115 131 115
241 231 213 210 173 144 149 160 160 178 184 147 140 125 142 172 151 113 318 259 152 204 223 243 269 244 199 188 172 167 171 166 168 170 170 172 168 167 167 167 167 162 163 162 164 164 162 172 171 166 174 172 171 174 169 170 166 155 153 159 155 149 158 153 140 131 124 129 134 134 136 136 138 139 137 139 141 144 147 150 153 154 152 148 149 148 144 145 139 135 134 124 119 117 115 118 110
240 233 222 205 189 178 142 151 169 180 169 142 139 128 137 157 145 134 255 197 166 203 205 179 217 230 221 209 184 172 172 168 169 172 172 173 170 169 169 169 169 166 167 166 167 166 166 178 177 169 174 172 172 175 172 176 174 161 157 156 150 154 164 153 146 139 132 141 142 138 136 134 137 136 136 140 139 145 147 147 152 150 150 150 150 150 146 142 136 134 134 129 130 130 126 121 110
220 227 227 199 212 220 133 145 172 185 160 154 163 147 134 158 137 139 193 176 164 186 184 153 165 195 222 225 197 179 174 171 172 175 175 173 171 171 170 172 173 170 170 169 169 169 170 180 179 173 175 174 175 177 175 180 180 168 162 160 157 160 162 156 156 156 147 148 141 139 141 137 137 134 135 139 138 144 146 145 149 148 150 152 148 149 145 141 139 140 136 131 134 131 130 130 115
221 203 211 204 215 233 162 158 181 200 169 171 191 195 113 148 112 121 162 144 152 180 161 130 149 183 221 211 198 194 178 172 176 177 178 175 172 172 172 175 175 172 173 171 170 170 174 181 179 177 179 177 178 178 178 179 178 175 168 165 166 164 165 161 156 162 165 159 145 142 146 144 143 138 136 138 139 141 142 144 148 146 149 150 147 150 146 140 139 148 151 143 145 143 137 132 122
244 201 195 202 211 227 216 203 205 200 160 168 200 213 114 125 33 69 158 143 144 149 128 118 156 186 210 193 199 203 180 175 180 180 180 177 175 175 174 177 178 174 174 173 172 173 178 184 179 179 182 180 182 180 179 179 176 178 172 169 172 165 168 162 148 159 172 154 145 146 150 150 147 142 139 141 141 141 141 144 147 147 147 146 148 149 146 147 153 162 169 163 159 158 146 137 137
240 235 198 202 206 227 234 230 225 205 185 183 209 207 130 118 163 112 140 165 148 141 159 190 171 185 199 187 200 209 189 183 182 183 185 180 177 178 176 178 179 176 175 174 174 174 182 188 180 180 184 183 185 182 181 182 178 181 177 172 175 166 174 169 150 160 165 144 147 156 160 155 148 147 146 146 144 145 146 141 145 148 144 145 150 148 147 157 172 178 174 167 161 162 153 145 149
232 283 335 217 194 212 236 237 249 239 228 231 212 184 142 106 136 136 130 138 134 129 145 168 177 190 195 187 205 223 222 209 187 184 188 183 180 179 178 181 180 177 176 175 175 173 180 189 184 182 187 187 187 184 185 186 182 186 181 177 179 168 176 180 161 167 166 153 159 167 168 159 154 157 152 152 150 146 148 143 141 146 146 151 153 153 162 173 185 185 175 170 166 163 157 148 151
225 221 249 235 191 211 229 224 251 244 230 251 221 156 142 139 132 135 131 119 109 120 121 138 168 186 188 187 201 210 216 218 194 189 194 189 184 182 181 182 182 179 176 175 177 175 178 188 188 184 186 189 189 186 187 188 187 190 183 181 183 173 176 183 175 178 174 168 170 169 168 161 157 162 156 158 158 151 152 148 146 150 152 159 157 156 167 174 179 180 177 180 175 169 165 157 154
231 216 192 209 200 218 227 206 231 240 224 246 219 137 124 155 137 132 135 132 131 121 111 115 143 171 178 181 190 194 203 208 200 207 213 197 187 186 185 184 184 181 177 177 178 177 179 188 190 186 185 189 191 188 188 190 193 193 187 184 185 180 181 182 182 187 181 173 174 172 169 163 162 169 166 164 163 158 158 154 155 164 164 164 165 163 163 166 172 179 182 181 178 177 175 171 157
242 237 191 199 203 202 225 215 219 227 225 239 212 123 93 87 117 130 130 132 136 125 126 126 122 137 133 147 168 180 194 198 207 217 212 202 195 190 188 186 185 184 181 180 180 180 180 187 192 189 187 189 191 189 190 193 195 195 192 189 188 185 185 185 187 190 185 177 176 177 176 171 169 174 172 168 169 167 164 161 167 175 173 170 171 170 168 169 171 179 186 181 182 186 181 183 160
230 246 196 197 210 192 211 225 219 220 224 221 158 96 97 117 117 126 119 118 123 110 108 118 120 118 83 66 108 157 178 189 203 205 194 203 211 196 191 188 186 187 184 181 183 184 183 187 194 193 191 192 193 191 191 196 197 197 197 196 194 191 187 190 192 192 190 184 180 183 184 179 177 177 173 171 177 180 171 167 173 177 178 177 177 177 176 176 178 182 186 183 186 189 184 190 174
216 247 209 199 218 207 205 213 215 218 212 186 137 103 125 143 123 126 121 116 116 104 99 102 97 91 84 67 76 124 174 180 189 198 200 218 221 198 193 191 188 189 189 185 186 188 189 192 196 196 195 195 196 194 193 196 198 198 200 200 200 198 194 193 195 195 194 190 186 187 186 187 186 178 175 176 181 186 181 173 175 178 180 182 181 180 179 181 186 187 183 182 186 192 195 197 189
197 225 229 216 231 241 236 224 223 222 203 169 139 109 111 129 132 133 125 116 108 97 92 91 85 82 79 66 73 119 176 176 174 190 205 221 221 197 193 193 193 194 193 191 189 190 192 196 200 200 198 198 200 199 196 197 200 200 201 203 202 201 199 198 197 196 197 196 194 190 185 187 191 185 182 183 182 185 188 182 180 183 183 183 183 181 183 185 189 190 185 185 188 194 201 200 195
183 198 223 233 246 259 263 249 245 233 202 142 117 115 120 134 136 130 123 112 100 91 86 83 84 83 74 62 66 97 165 181 180 190 199 212 214 195 192 195 197 196 197 198 196 194 194 197 202 204 202 201 203 204 202 201 202 203 203 205 206 205 202 201 201 199 197 198 199 197 191 186 189 193 190 186 185 187 191 190 186 188 186 184 185 183 185 188 190 190 187 189 191 195 199 199 201
222 193 232 245 244 255 277 294 271 241 203 136 129 133 137 145 137 134 130 113 101 94 86 79 74 70 66 60 56 65 135 167 174 190 203 213 209 191 189 198 201 198 199 201 200 197 196 199 203 206 206 206 205 206 206 205 206 206 206 207 207 209 208 204 204 205 199 196 199 199 198 193 192 192 189 192 196 192 193 195 190 191 190 187 188 187 188 189 189 190 188 189 194 198 198 196 202
263 299 307 269 241 236 224 251 278 239 193 131 139 143 138 139 139 139 128 113 105 95 83 73 62 55 58 57 46 43 78 134 148 157 168 196 205 200 197 201 204 204 205 206 204 200 198 199 200 204 207 209 209 207 207 208 210 210 210 211 208 209 212 205 202 206 201 198 202 200 197 199 199 190 182 194 209 203 197 198 195 195 196 194 192 191 193 192 191 193 191 192 197 200 199 196 203
251 270 261 239 250 263 213 215 261 251 196 134 144 149 122 80 108 125 114 107 106 94 81 71 59 48 48 50 44 40 49 80 89 70 63 89 197 209 209 207 198 198 205 207 207 209 207 200 199 206 207 205 207 207 207 210 213 212 212 215 212 210 213 207 200 204 205 201 202 202 199 200 204 198 186 190 206 208 202 199 200 202 201 203 201 196 199 199 197 200 197 197 201 202 200 199 205
216 233 237 220 232 287 246 214 228 257 251 147 142 136 112 31 321 127 116 109 105 97 90 81 70 59 50 43 41 42 43 50 52 48 46 46 45 201 212 210 201 198 204 204 205 215 214 200 198 208 208 205 205 205 205 209 213 213 212 217 219 214 212 210 202 201 206 204 202 203 203 202 204 204 198 198 202 203 203 202 200 201 201 208 211 202 203 205 203 205 205 203 205 204 205 207 209
255 227 221 213 211 234 240 215 217 242 265 126 129 119 119 148 196 139 107 102 104 101 98 94 86 77 65 51 42 40 40 42 43 43 44 42 41 59 181 200 202 204 207 205 206 210 204 198 203 208 208 210 209 205 206 211 214 213 210 216 222 220 215 212 206 203 205 205 203 203 204 203 201 202 204 210 208 201 205 204 199 200 200 206 218 215 210 211 207 206 209 211 213 210 210 213 214